Time,TemperatureF,DewpointF,PressureIn,WindDirection,WindDirectionDegrees,WindSpeedMPH,WindSpeedGustMPH,Humidity,HourlyPrecipIn,Conditions,Clouds,dailyrainin,SoftwareType,DateUTC
2013-01-16 03:00:00,33.5,30.2,30.46,North,0,0.0,0.0,88,0.00,,,0.00,WUHU216HW,2013-01-16 11:00:00,
2013-01-16 03:06:00,33.5,30.2,30.46,North,0,0.0,0.0,88,0.00,,,0.00,WUHU216HW,2013-01-16 11:06:00,
2013-01-16 04:00:00,33.1,29.9,30.45,NNE,23,0.0,0.0,88,0.00,,,0.00,WUHU216HW,2013-01-16 12:00:00,
2013-01-16 06:00:00,33.5,30.5,30.42,East,90,0.4,0.4,89,0.00,,,0.00,WUHU216HW,2013-01-16 14:00:00,
2013-01-16 06:04:00,33.5,30.5,30.41,ESE,113,0.0,0.4,89,0.00,,,0.00,WUHU216HW,2013-01-16 14:04:00,
2013-01-16 06:10:00,33.5,30.5,30.41,ESE,113,0.0,0.2,89,0.00,,,0.00,WUHU216HW,2013-01-16 14:10:00,
2013-01-16 06:17:00,33.5,30.5,30.41,East,90,0.2,0.4,89,0.00,,,0.00,WUHU216HW,2013-01-16 14:17:00,
2013-01-16 06:21:00,33.5,30.5,30.41,East,90,0.0,0.4,89,0.00,,,0.00,WUHU216HW,2013-01-16 14:21:00,
2013-01-16 06:25:00,33.5,30.5,30.41,East,90,0.2,0.2,89,0.00,,,0.00,WUHU216HW,2013-01-16 14:25:00,
2013-01-16 06:28:00,33.5,30.5,30.41,East,90,0.0,0.2,89,0.00,,,0.00,WUHU216HW,2013-01-16 14:28:00,
2013-01-16 06:33:00,33.5,30.5,30.41,East,90,1.0,1.6,89,0.00,,,0.00,WUHU216HW,2013-01-16 14:33:00,
2013-01-16 06:38:00,33.5,30.5,30.41,East,90,0.2,1.6,89,0.00,,,0.00,WUHU216HW,2013-01-16 14:38:00,
2013-01-16 06:39:00,33.5,30.5,30.41,East,90,0.0,1.6,89,0.00,,,0.00,WUHU216HW,2013-01-16 14:39:00,
2013-01-16 06:45:00,33.5,30.5,30.41,East,90,0.0,0.2,89,0.00,,,0.00,WUHU216HW,2013-01-16 14:45:00,
2013-01-16 06:46:00,33.5,30.2,30.41,East,90,0.0,0.2,88,0.00,,,0.00,WUHU216HW,2013-01-16 14:46:00,
2013-01-16 06:53:00,33.5,30.5,30.41,ENE,68,0.0,0.0,89,0.00,,,0.00,WUHU216HW,2013-01-16 14:53:00,
2013-01-16 06:58:00,33.5,30.5,30.41,NE,45,0.0,0.0,89,0.00,,,0.00,WUHU216HW,2013-01-16 14:58:00,
2013-01-16 07:03:00,33.5,30.5,30.41,NE,45,0.0,0.0,89,0.00,,,0.00,WUHU216HW,2013-01-16 15:03:00,
2013-01-16 07:08:00,33.7,30.4,30.41,North,0,0.4,0.4,88,0.00,,,0.00,WUHU216HW,2013-01-16 15:08:00,
2013-01-16 07:13:00,33.5,30.2,30.41,NNE,23,0.0,0.4,88,0.00,,,0.00,WUHU216HW,2013-01-16 15:13:00,
2013-01-16 07:19:00,33.5,30.2,30.41,NNE,23,0.0,0.0,88,0.00,,,0.00,WUHU216HW,2013-01-16 15:19:00,
2013-01-16 07:24:00,33.5,30.2,30.41,East,90,0.2,0.2,88,0.00,,,0.00,WUHU216HW,2013-01-16 15:24:00,
2013-01-16 07:29:00,33.5,30.2,30.41,ESE,113,0.0,0.2,88,0.00,,,0.00,WUHU216HW,2013-01-16 15:29:00,
2013-01-16 07:34:00,33.5,30.2,30.41,North,0,0.0,0.2,88,0.00,,,0.00,WUHU216HW,2013-01-16 15:34:00,
2013-01-16 07:39:00,33.5,30.2,30.41,NE,45,0.0,0.0,88,0.00,,,0.00,WUHU216HW,2013-01-16 15:39:00,
2013-01-16 07:44:00,33.5,30.2,30.42,NE,45,0.0,0.0,88,0.00,,,0.00,WUHU216HW,2013-01-16 15:44:00,
2013-01-16 07:49:00,33.7,30.4,30.42,East,90,0.0,0.7,88,0.00,,,0.00,WUHU216HW,2013-01-16 15:49:00,
2013-01-16 07:55:00,33.5,30.2,30.42,ESE,113,0.0,0.7,88,0.00,,,0.00,WUHU216HW,2013-01-16 15:55:00,
2013-01-16 08:00:00,33.5,30.2,30.42,ENE,68,0.0,0.2,88,0.00,,,0.00,WUHU216HW,2013-01-16 16:00:00,
2013-01-16 08:05:00,33.5,30.2,30.42,ESE,113,0.0,0.7,88,0.00,,,0.00,WUHU216HW,2013-01-16 16:05:00,
2013-01-16 08:11:00,33.5,30.2,30.42,East,90,0.0,0.4,88,0.00,,,0.00,WUHU216HW,2013-01-16 16:11:00,
2013-01-16 08:16:00,33.5,30.2,30.42,NE,45,0.0,0.0,88,0.00,,,0.00,WUHU216HW,2013-01-16 16:16:00,
2013-01-16 08:21:00,33.7,30.4,30.42,WNW,293,0.0,0.0,88,0.00,,,0.00,WUHU216HW,2013-01-16 16:21:00,
2013-01-16 08:26:00,33.5,30.2,30.42,WNW,293,0.0,0.0,88,0.00,,,0.00,WUHU216HW,2013-01-16 16:26:00,
2013-01-16 08:30:00,33.5,30.2,30.42,WNW,293,0.2,0.2,88,0.00,,,0.00,WUHU216HW,2013-01-16 16:30:00,
2013-01-16 08:36:00,33.7,30.4,30.42,NW,315,0.0,0.2,88,0.00,,,0.00,WUHU216HW,2013-01-16 16:36:00,
2013-01-16 08:40:00,33.7,30.4,30.42,NE,45,0.0,0.2,88,0.00,,,0.00,WUHU216HW,2013-01-16 16:40:00,
2013-01-16 08:42:00,33.7,30.4,30.42,NNE,23,0.4,0.4,88,0.00,,,0.00,WUHU216HW,2013-01-16 16:42:00,
2013-01-16 08:48:00,33.7,30.4,30.42,NE,45,0.2,0.4,88,0.00,,,0.00,WUHU216HW,2013-01-16 16:48:00,
2013-01-16 08:54:00,33.7,30.4,30.42,NNW,338,0.7,0.7,88,0.00,,,0.00,WUHU216HW,2013-01-16 16:54:00,
2013-01-16 08:56:00,33.8,30.6,30.42,North,0,0.0,0.7,88,0.00,,,0.00,WUHU216HW,2013-01-16 16:56:00,
2013-01-16 09:00:00,33.7,30.4,30.42,NNE,23,0.0,0.7,88,0.00,,,0.00,WUHU216HW,2013-01-16 17:00:00,
2013-01-16 09:06:00,33.8,30.6,30.42,NNE,23,0.0,0.4,88,0.00,,,0.00,WUHU216HW,2013-01-16 17:06:00,
2013-01-16 09:11:00,33.8,30.6,30.42,North,0,0.2,0.4,88,0.00,,,0.00,WUHU216HW,2013-01-16 17:11:00,
2013-01-16 09:16:00,34.0,30.8,30.42,NNE,23,0.0,0.2,88,0.00,,,0.00,WUHU216HW,2013-01-16 17:16:00,
2013-01-16 09:18:00,34.0,30.8,30.42,NNE,23,0.0,0.2,88,0.00,,,0.00,WUHU216HW,2013-01-16 17:18:00,
2013-01-16 09:23:00,34.0,30.8,30.42,NNE,23,0.0,0.0,88,0.00,,,0.00,WUHU216HW,2013-01-16 17:23:00,
2013-01-16 09:28:00,34.2,31.0,30.42,SE,135,1.1,1.1,88,0.00,,,0.00,WUHU216HW,2013-01-16 17:28:00,
2013-01-16 09:33:00,34.2,31.0,30.42,NNE,23,0.0,1.1,88,0.00,,,0.00,WUHU216HW,2013-01-16 17:33:00,
2013-01-16 09:38:00,34.4,31.2,30.42,NNE,23,0.0,0.0,88,0.00,,,0.00,WUHU216HW,2013-01-16 17:38:00,
2013-01-16 09:43:00,34.6,31.0,30.42,ESE,113,0.9,0.9,87,0.00,,,0.00,WUHU216HW,2013-01-16 17:43:00,
2013-01-16 09:48:00,34.7,31.1,30.42,NNE,23,0.0,0.9,87,0.00,,,0.00,WUHU216HW,2013-01-16 17:48:00,
2013-01-16 09:53:00,34.7,31.1,30.42,North,0,0.0,0.2,87,0.00,,,0.00,WUHU216HW,2013-01-16 17:53:00,
2013-01-16 10:00:00,34.9,31.3,30.42,North,0,0.0,0.4,87,0.00,,,0.00,WUHU216HW,2013-01-16 18:00:00,
2013-01-16 10:05:00,35.1,31.5,30.42,ESE,113,1.3,1.3,87,0.00,,,0.00,WUHU216HW,2013-01-16 18:05:00,
2013-01-16 10:11:00,35.3,31.7,30.42,North,0,0.0,1.3,87,0.00,,,0.00,WUHU216HW,2013-01-16 18:11:00,
2013-01-16 10:17:00,35.3,31.7,30.42,North,0,0.2,1.3,87,0.00,,,0.00,WUHU216HW,2013-01-16 18:17:00,
2013-01-16 10:27:00,36.0,32.4,30.41,ENE,68,0.0,0.2,87,0.00,,,0.00,WUHU216HW,2013-01-16 18:27:00,
2013-01-16 10:32:00,36.2,32.6,30.41,NNE,23,0.0,0.4,87,0.00,,,0.00,WUHU216HW,2013-01-16 18:32:00,
2013-01-16 10:37:00,36.5,32.9,30.42,East,90,1.1,1.1,87,0.00,,,0.00,WUHU216HW,2013-01-16 18:37:00,
2013-01-16 10:42:00,36.7,33.1,30.42,NNE,23,0.2,1.1,87,0.00,,,0.00,WUHU216HW,2013-01-16 18:42:00,
2013-01-16 10:47:00,37.1,33.5,30.41,NW,315,0.0,1.1,87,0.00,,,0.00,WUHU216HW,2013-01-16 18:47:00,
2013-01-16 10:52:00,37.3,33.7,30.41,North,0,0.0,1.1,87,0.00,,,0.00,WUHU216HW,2013-01-16 18:52:00,
2013-01-16 10:57:00,37.4,33.6,30.41,North,0,0.2,0.7,86,0.00,,,0.00,WUHU216HW,2013-01-16 18:57:00,
2013-01-16 11:02:00,37.6,33.8,30.41,NNE,23,0.4,0.7,86,0.00,,,0.00,WUHU216HW,2013-01-16 19:02:00,
2013-01-16 11:07:00,37.8,33.9,30.41,NE,45,0.2,0.4,86,0.00,,,0.00,WUHU216HW,2013-01-16 19:07:00,
2013-01-16 11:12:00,38.0,34.1,30.41,NE,45,0.0,0.4,86,0.00,,,0.00,WUHU216HW,2013-01-16 19:12:00,
2013-01-16 11:17:00,38.2,34.3,30.41,ESE,113,3.1,3.1,86,0.00,,,0.00,WUHU216HW,2013-01-16 19:17:00,
2013-01-16 11:22:00,38.3,34.2,30.41,North,0,0.2,3.1,85,0.00,,,0.00,WUHU216HW,2013-01-16 19:22:00,
2013-01-16 11:27:00,38.5,34.4,30.41,ESE,113,0.8,1.8,85,0.00,,,0.00,WUHU216HW,2013-01-16 19:27:00,
2013-01-16 11:32:00,38.5,34.4,30.40,SE,135,0.4,1.1,85,0.00,,,0.00,WUHU216HW,2013-01-16 19:32:00,
2013-01-16 11:37:00,38.5,34.1,30.40,East,90,0.4,2.0,84,0.00,,,0.00,WUHU216HW,2013-01-16 19:37:00,
2013-01-16 11:42:00,38.7,34.3,30.40,ESE,113,1.3,2.2,84,0.00,,,0.00,WUHU216HW,2013-01-16 19:42:00,
2013-01-16 11:47:00,38.9,34.5,30.40,ESE,106,1.7,2.9,84,0.00,,,0.00,WUHU216HW,2013-01-16 19:47:00,
2013-01-16 11:53:00,39.1,34.7,30.40,ESE,113,2.5,2.9,84,0.00,,,0.00,WUHU216HW,2013-01-16 19:53:00,
2013-01-16 11:58:00,39.1,34.7,30.40,East,90,0.2,2.5,84,0.00,,,0.00,WUHU216HW,2013-01-16 19:58:00,
2013-01-16 12:03:00,39.2,34.6,30.40,East,90,0.0,0.9,83,0.00,,,0.00,WUHU216HW,2013-01-16 20:03:00,
2013-01-16 12:08:00,39.6,34.8,30.39,North,0,0.4,0.9,83,0.00,,,0.00,WUHU216HW,2013-01-16 20:08:00,
2013-01-16 12:14:00,39.8,35.0,30.39,ESE,113,0.4,0.4,83,0.00,,,0.00,WUHU216HW,2013-01-16 20:14:00,
2013-01-16 12:19:00,39.8,34.8,30.39,ESE,113,0.4,2.2,82,0.00,,,0.00,WUHU216HW,2013-01-16 20:19:00,
2013-01-16 12:24:00,40.0,34.9,30.39,NNW,338,0.4,2.2,82,0.00,,,0.00,WUHU216HW,2013-01-16 20:24:00,
2013-01-16 12:29:00,40.0,34.9,30.39,ESE,113,0.9,1.1,82,0.00,,,0.00,WUHU216HW,2013-01-16 20:29:00,
2013-01-16 12:34:00,40.3,35.2,30.39,East,90,0.2,0.9,82,0.00,,,0.00,WUHU216HW,2013-01-16 20:34:00,
2013-01-16 12:39:00,40.5,35.4,30.39,ESE,113,0.7,0.7,82,0.00,,,0.00,WUHU216HW,2013-01-16 20:39:00,
2013-01-16 12:44:00,40.7,35.8,30.39,North,0,0.4,0.7,83,0.00,,,0.00,WUHU216HW,2013-01-16 20:44:00,
2013-01-16 12:50:00,40.7,35.6,30.38,NNW,338,0.0,0.7,82,0.00,,,0.00,WUHU216HW,2013-01-16 20:50:00,
2013-01-16 12:55:00,40.9,35.7,30.38,East,98,0.6,1.1,82,0.00,,,0.00,WUHU216HW,2013-01-16 20:55:00,
2013-01-16 13:01:00,41.0,35.9,30.38,ESE,113,0.0,1.1,82,0.00,,,0.00,WUHU216HW,2013-01-16 21:01:00,
2013-01-16 13:07:00,41.4,36.3,30.38,North,0,0.0,0.4,82,0.00,,,0.00,WUHU216HW,2013-01-16 21:07:00,
2013-01-16 13:12:00,41.6,36.1,30.38,NNE,23,0.0,0.2,81,0.00,,,0.00,WUHU216HW,2013-01-16 21:12:00,
2013-01-16 13:18:00,41.8,36.3,30.37,NNW,338,0.2,0.4,81,0.00,,,0.00,WUHU216HW,2013-01-16 21:18:00,
2013-01-16 13:23:00,42.1,36.0,30.37,NW,315,0.4,0.4,79,0.00,,,0.00,WUHU216HW,2013-01-16 21:23:00,
2013-01-16 13:28:00,42.3,36.5,30.37,NNE,23,0.0,0.4,80,0.00,,,0.00,WUHU216HW,2013-01-16 21:28:00,
2013-01-16 13:34:00,42.5,36.7,30.37,East,90,0.0,1.1,80,0.00,,,0.00,WUHU216HW,2013-01-16 21:34:00,
2013-01-16 13:39:00,42.8,36.7,30.37,NNW,338,0.4,0.4,79,0.00,,,0.00,WUHU216HW,2013-01-16 21:39:00,
2013-01-16 13:44:00,42.8,36.7,30.36,NNE,23,0.0,0.4,79,0.00,,,0.00,WUHU216HW,2013-01-16 21:44:00,
2013-01-16 13:51:00,43.2,37.1,30.37,North,0,0.0,0.2,79,0.00,,,0.00,WUHU216HW,2013-01-16 21:51:00,
2013-01-16 13:56:00,43.6,37.2,30.36,NNW,338,0.0,0.0,78,0.00,,,0.00,WUHU216HW,2013-01-16 21:56:00,
2013-01-16 14:02:00,44.6,38.5,30.36,North,0,0.2,0.2,79,0.00,,,0.00,WUHU216HW,2013-01-16 22:02:00,
2013-01-16 14:07:00,45.2,37.4,30.36,NNE,24,0.3,2.0,74,0.00,,,0.00,WUHU216HW,2013-01-16 22:07:00,
2013-01-16 14:12:00,45.4,37.5,30.36,NNW,345,0.6,0.9,74,0.00,,,0.00,WUHU216HW,2013-01-16 22:12:00,
2013-01-16 14:19:00,45.9,38.4,30.36,NNE,23,0.2,0.9,75,0.00,,,0.00,WUHU216HW,2013-01-16 22:19:00,
2013-01-16 14:25:00,46.6,38.1,30.36,North,0,0.4,0.4,72,0.00,,,0.00,WUHU216HW,2013-01-16 22:25:00,
2013-01-16 14:30:00,46.3,38.1,30.36,NW,315,0.9,2.5,73,0.00,,,0.00,WUHU216HW,2013-01-16 22:30:00,
2013-01-16 14:35:00,47.0,39.2,30.36,North,0,0.4,2.5,74,0.00,,,0.00,WUHU216HW,2013-01-16 22:35:00,
2013-01-16 14:40:00,46.8,37.6,30.36,NNE,23,0.4,0.9,70,0.00,,,0.00,WUHU216HW,2013-01-16 22:40:00,
2013-01-16 14:45:00,46.6,37.5,30.36,WNW,293,0.4,0.9,70,0.00,,,0.00,WUHU216HW,2013-01-16 22:45:00,
2013-01-16 14:51:00,47.3,38.8,30.36,ESE,113,0.2,0.4,72,0.00,,,0.00,WUHU216HW,2013-01-16 22:51:00,
2013-01-16 14:56:00,49.0,39.3,30.36,North,0,0.7,0.7,69,0.00,,,0.00,WUHU216HW,2013-01-16 22:56:00,
2013-01-16 15:03:00,49.3,40.0,30.36,NE,45,0.4,0.7,70,0.00,,,0.00,WUHU216HW,2013-01-16 23:03:00,
2013-01-16 15:09:00,52.0,42.2,30.36,NNE,23,0.2,1.1,69,0.00,,,0.00,WUHU216HW,2013-01-16 23:09:00,
2013-01-16 15:14:00,53.3,42.6,30.36,NNE,23,0.0,0.7,67,0.00,,,0.00,WUHU216HW,2013-01-16 23:14:00,
2013-01-16 15:19:00,53.8,41.9,30.36,North,0,0.2,0.2,64,0.00,,,0.00,WUHU216HW,2013-01-16 23:19:00,
2013-01-16 15:25:00,53.6,39.7,30.36,NNW,338,0.4,0.4,59,0.00,,,0.00,WUHU216HW,2013-01-16 23:25:00,
2013-01-16 15:30:00,53.5,40.8,30.36,NNE,23,0.0,0.4,62,0.00,,,0.00,WUHU216HW,2013-01-16 23:30:00,
2013-01-16 15:35:00,54.0,41.2,30.36,NNE,23,0.0,0.4,62,0.00,,,0.00,WUHU216HW,2013-01-16 23:35:00,
2013-01-16 15:40:00,54.9,41.7,30.36,NNW,338,0.0,0.2,61,0.00,,,0.00,WUHU216HW,2013-01-16 23:40:00,
2013-01-16 15:45:00,55.3,41.1,30.36,NNE,23,0.3,0.4,59,0.00,,,0.00,WUHU216HW,2013-01-16 23:45:00,
2013-01-16 15:50:00,54.9,39.9,30.35,NNW,338,0.4,0.4,57,0.00,,,0.00,WUHU216HW,2013-01-16 23:50:00,
2013-01-16 15:55:00,54.5,39.5,30.35,North,0,0.4,0.4,57,0.00,,,0.00,WUHU216HW,2013-01-16 23:55:00,
2013-01-16 16:00:00,53.3,38.4,30.35,North,0,0.0,0.4,57,0.00,,,0.00,WUHU216HW,2013-01-17 00:00:00,
2013-01-16 16:05:00,51.3,37.0,30.35,NNW,338,0.0,0.0,58,0.00,,,0.00,WUHU216HW,2013-01-17 00:05:00,
2013-01-16 16:10:00,49.5,36.3,30.35,North,0,0.0,0.0,60,0.00,,,0.00,WUHU216HW,2013-01-17 00:10:00,
2013-01-16 16:15:00,47.7,34.9,30.35,NNW,338,0.0,0.0,61,0.00,,,0.00,WUHU216HW,2013-01-17 00:15:00,
2013-01-16 16:20:00,46.4,34.1,30.36,North,0,0.0,0.0,62,0.00,,,0.00,WUHU216HW,2013-01-17 00:20:00,
2013-01-16 16:25:00,45.9,34.0,30.36,North,0,0.0,0.0,63,0.00,,,0.00,WUHU216HW,2013-01-17 00:25:00,
2013-01-16 16:30:00,44.8,32.9,30.36,NNW,338,0.0,0.0,63,0.00,,,0.00,WUHU216HW,2013-01-17 00:30:00,
2013-01-16 16:35:00,43.7,32.3,30.36,NW,315,0.0,0.0,64,0.00,,,0.00,WUHU216HW,2013-01-17 00:35:00,
2013-01-16 16:40:00,43.0,32.1,30.36,NW,315,0.0,0.0,65,0.00,,,0.00,WUHU216HW,2013-01-17 00:40:00,
2013-01-16 16:45:00,42.5,32.0,30.36,NW,315,0.0,0.0,66,0.00,,,0.00,WUHU216HW,2013-01-17 00:45:00,
2013-01-16 16:50:00,41.9,31.8,30.36,NW,315,0.0,0.0,67,0.00,,,0.00,WUHU216HW,2013-01-17 00:50:00,
2013-01-16 16:55:00,41.4,31.2,30.36,NW,315,0.0,0.0,67,0.00,,,0.00,WUHU216HW,2013-01-17 00:55:00,
2013-01-16 17:00:00,40.7,31.0,30.35,NW,315,0.0,0.0,68,0.00,,,0.00,WUHU216HW,2013-01-17 01:00:00,
2013-01-16 17:05:00,40.0,30.3,30.36,NW,315,0.0,0.0,68,0.00,,,0.00,WUHU216HW,2013-01-17 01:05:00,
2013-01-16 17:10:00,39.2,29.9,30.35,NW,315,0.0,0.0,69,0.00,,,0.00,WUHU216HW,2013-01-17 01:10:00,
2013-01-16 17:15:00,38.9,29.9,30.35,NW,315,0.0,0.0,70,0.00,,,0.00,WUHU216HW,2013-01-17 01:15:00,
2013-01-16 17:20:00,38.5,29.6,30.35,NW,315,0.0,0.0,70,0.00,,,0.00,WUHU216HW,2013-01-17 01:20:00,
2013-01-16 17:25:00,38.0,29.4,30.35,NW,315,0.0,0.0,71,0.00,,,0.00,WUHU216HW,2013-01-17 01:25:00,
2013-01-16 17:30:00,37.4,29.0,30.35,NW,315,0.0,0.0,71,0.00,,,0.00,WUHU216HW,2013-01-17 01:30:00,
2013-01-16 17:35:00,37.1,28.9,30.35,NW,315,0.0,0.0,72,0.00,,,0.00,WUHU216HW,2013-01-17 01:35:00,
2013-01-16 17:40:00,36.7,28.5,30.36,NW,315,0.0,0.0,72,0.00,,,0.00,WUHU216HW,2013-01-17 01:40:00,
2013-01-16 17:45:00,36.4,28.5,30.36,NW,315,0.0,0.0,73,0.00,,,0.00,WUHU216HW,2013-01-17 01:45:00,
2013-01-16 17:50:00,35.8,28.0,30.35,NW,315,0.0,0.0,73,0.00,,,0.00,WUHU216HW,2013-01-17 01:50:00,
2013-01-16 17:55:00,35.5,27.6,30.35,NW,315,0.0,0.0,73,0.00,,,0.00,WUHU216HW,2013-01-17 01:55:00,
2013-01-16 18:00:00,35.1,27.3,30.35,NW,315,0.0,0.0,73,0.00,,,0.00,WUHU216HW,2013-01-17 02:00:00,
2013-01-16 18:05:00,34.6,27.0,30.35,NW,315,0.0,0.0,74,0.00,,,0.00,WUHU216HW,2013-01-17 02:05:00,
2013-01-16 18:10:00,34.2,26.6,30.35,NW,315,0.0,0.0,74,0.00,,,0.00,WUHU216HW,2013-01-17 02:10:00,
2013-01-16 18:15:00,34.0,26.8,30.35,NW,315,0.0,0.0,75,0.00,,,0.00,WUHU216HW,2013-01-17 02:15:00,
2013-01-16 18:20:00,33.7,26.8,30.34,NW,315,0.0,0.0,76,0.00,,,0.00,WUHU216HW,2013-01-17 02:20:00,
2013-01-16 18:25:00,33.5,26.6,30.34,NW,315,0.0,0.0,76,0.00,,,0.00,WUHU216HW,2013-01-17 02:25:00,
2013-01-16 18:30:00,33.3,26.5,30.35,NW,315,0.0,0.0,76,0.00,,,0.00,WUHU216HW,2013-01-17 02:30:00,
2013-01-16 18:35:00,33.1,26.3,30.34,NW,315,0.0,0.0,76,0.00,,,0.00,WUHU216HW,2013-01-17 02:35:00,
2013-01-16 18:40:00,32.9,26.5,30.35,NW,315,0.0,0.0,77,0.00,,,0.00,WUHU216HW,2013-01-17 02:40:00,
2013-01-16 18:45:00,32.8,26.3,30.35,NW,315,0.0,0.0,77,0.00,,,0.00,WUHU216HW,2013-01-17 02:45:00,
2013-01-16 18:50:00,32.4,26.3,30.34,NW,315,0.0,0.0,78,0.00,,,0.00,WUHU216HW,2013-01-17 02:50:00,
2013-01-16 18:55:00,32.2,26.2,30.34,NW,315,0.0,0.0,78,0.00,,,0.00,WUHU216HW,2013-01-17 02:55:00,
2013-01-16 19:00:00,32.0,26.0,30.34,NW,315,0.0,0.0,78,0.00,,,0.00,WUHU216HW,2013-01-17 03:00:00,
2013-01-16 19:05:00,31.9,25.8,30.34,NW,315,0.0,0.0,78,0.00,,,0.00,WUHU216HW,2013-01-17 03:05:00,
2013-01-16 19:10:00,31.9,25.8,30.34,NW,315,0.0,0.0,78,0.00,,,0.00,WUHU216HW,2013-01-17 03:10:00,
2013-01-16 19:15:00,31.7,25.7,30.34,NW,315,0.0,0.0,78,0.00,,,0.00,WUHU216HW,2013-01-17 03:15:00,
2013-01-16 19:20:00,31.5,25.7,30.34,NW,315,0.0,0.0,79,0.00,,,0.00,WUHU216HW,2013-01-17 03:20:00,
2013-01-16 19:25:00,31.3,25.6,30.34,NW,315,0.0,0.0,79,0.00,,,0.00,WUHU216HW,2013-01-17 03:25:00,
2013-01-16 19:30:00,31.1,25.4,30.34,NW,315,0.0,0.0,79,0.00,,,0.00,WUHU216HW,2013-01-17 03:30:00,
2013-01-16 19:35:00,31.1,25.4,30.34,NW,315,0.0,0.0,79,0.00,,,0.00,WUHU216HW,2013-01-17 03:35:00,
2013-01-16 19:40:00,30.8,25.0,30.33,NW,315,0.0,0.0,79,0.00,,,0.00,WUHU216HW,2013-01-17 03:40:00,
2013-01-16 19:45:00,30.8,25.0,30.33,NW,315,0.0,0.0,79,0.00,,,0.00,WUHU216HW,2013-01-17 03:45:00,
2013-01-16 19:50:00,30.6,25.2,30.33,NW,315,0.0,0.0,80,0.00,,,0.00,WUHU216HW,2013-01-17 03:50:00,
2013-01-16 19:55:00,30.6,25.2,30.33,NW,315,0.0,0.0,80,0.00,,,0.00,WUHU216HW,2013-01-17 03:55:00,
2013-01-16 20:00:00,30.4,25.0,30.33,NW,315,0.0,0.0,80,0.00,,,0.00,WUHU216HW,2013-01-17 04:00:00,
2013-01-16 20:05:00,30.4,25.3,30.32,NW,315,0.0,0.0,81,0.00,,,0.00,WUHU216HW,2013-01-17 04:05:00,
2013-01-16 20:10:00,30.4,25.3,30.32,NW,315,0.0,0.0,81,0.00,,,0.00,WUHU216HW,2013-01-17 04:10:00,
2013-01-16 20:15:00,30.2,25.1,30.32,NW,315,0.0,0.0,81,0.00,,,0.00,WUHU216HW,2013-01-17 04:15:00,
2013-01-16 20:20:00,30.1,24.9,30.32,NW,315,0.0,0.0,81,0.00,,,0.00,WUHU216HW,2013-01-17 04:20:00,
2013-01-16 20:25:00,30.1,24.9,30.32,NW,315,0.0,0.0,81,0.00,,,0.00,WUHU216HW,2013-01-17 04:25:00,
2013-01-16 20:30:00,29.9,24.8,30.32,NW,315,0.0,0.0,81,0.00,,,0.00,WUHU216HW,2013-01-17 04:30:00,
2013-01-16 20:35:00,29.9,25.0,30.32,NW,315,0.0,0.0,82,0.00,,,0.00,WUHU216HW,2013-01-17 04:35:00,
2013-01-16 20:40:00,29.7,24.8,30.33,NW,315,0.0,0.0,82,0.00,,,0.00,WUHU216HW,2013-01-17 04:40:00,
2013-01-16 20:45:00,29.7,24.8,30.32,NW,315,0.0,0.0,82,0.00,,,0.00,WUHU216HW,2013-01-17 04:45:00,
2013-01-16 20:50:00,29.5,24.7,30.32,NW,315,0.0,0.0,82,0.00,,,0.00,WUHU216HW,2013-01-17 04:50:00,
2013-01-16 20:55:00,29.3,24.9,30.32,NW,315,0.0,0.0,83,0.00,,,0.00,WUHU216HW,2013-01-17 04:55:00,
2013-01-16 21:01:00,29.2,24.7,30.32,NW,315,0.0,0.0,83,0.00,,,0.00,WUHU216HW,2013-01-17 05:01:00,
2013-01-16 21:05:00,29.2,24.7,30.32,NW,315,0.0,0.0,83,0.00,,,0.00,WUHU216HW,2013-01-17 05:05:00,
2013-01-16 21:10:00,29.2,24.7,30.32,NW,315,0.0,0.0,83,0.00,,,0.00,WUHU216HW,2013-01-17 05:10:00,
2013-01-16 21:15:00,29.2,24.7,30.32,NW,315,0.0,0.0,83,0.00,,,0.00,WUHU216HW,2013-01-17 05:15:00,
2013-01-16 21:20:00,29.0,24.8,30.32,NW,315,0.0,0.0,84,0.00,,,0.00,WUHU216HW,2013-01-17 05:20:00,
2013-01-16 21:25:00,29.0,24.8,30.32,NW,315,0.0,0.0,84,0.00,,,0.00,WUHU216HW,2013-01-17 05:25:00,
2013-01-16 21:30:00,29.0,24.8,30.32,NW,315,0.0,0.0,84,0.00,,,0.00,WUHU216HW,2013-01-17 05:30:00,
2013-01-16 21:35:00,28.8,24.6,30.32,NW,315,0.0,0.0,84,0.00,,,0.00,WUHU216HW,2013-01-17 05:35:00,
2013-01-16 21:40:00,28.8,24.6,30.31,NW,315,0.0,0.0,84,0.00,,,0.00,WUHU216HW,2013-01-17 05:40:00,
2013-01-16 21:45:00,28.8,24.6,30.31,NW,315,0.0,0.0,84,0.00,,,0.00,WUHU216HW,2013-01-17 05:45:00,
2013-01-16 21:50:00,28.8,24.8,30.31,NW,315,0.0,0.0,85,0.00,,,0.00,WUHU216HW,2013-01-17 05:50:00,
2013-01-16 21:55:00,28.8,24.8,30.32,NW,315,0.0,0.0,85,0.00,,,0.00,WUHU216HW,2013-01-17 05:55:00,
2013-01-16 22:00:00,28.8,24.8,30.31,NW,315,0.0,0.0,85,0.00,,,0.00,WUHU216HW,2013-01-17 06:00:00,
2013-01-16 22:05:00,28.8,24.8,30.31,NW,315,0.0,0.0,85,0.00,,,0.00,WUHU216HW,2013-01-17 06:05:00,
2013-01-16 22:10:00,28.8,24.8,30.31,NW,315,0.0,0.0,85,0.00,,,0.00,WUHU216HW,2013-01-17 06:10:00,
2013-01-16 22:15:00,28.6,24.7,30.31,NW,315,0.0,0.0,85,0.00,,,0.00,WUHU216HW,2013-01-17 06:15:00,
2013-01-16 22:20:00,28.6,24.7,30.31,NW,315,0.0,0.0,85,0.00,,,0.00,WUHU216HW,2013-01-17 06:20:00,
2013-01-16 22:25:00,28.6,24.7,30.31,NW,315,0.0,0.0,85,0.00,,,0.00,WUHU216HW,2013-01-17 06:25:00,
2013-01-16 22:30:00,28.6,24.7,30.31,NW,315,0.0,0.0,85,0.00,,,0.00,WUHU216HW,2013-01-17 06:30:00,
2013-01-16 22:35:00,28.6,24.7,30.31,NW,315,0.0,0.0,85,0.00,,,0.00,WUHU216HW,2013-01-17 06:35:00,
2013-01-16 22:40:00,28.4,24.5,30.31,NW,315,0.0,0.0,85,0.00,,,0.00,WUHU216HW,2013-01-17 06:40:00,
2013-01-16 22:45:00,28.4,24.5,30.31,NW,315,0.0,0.0,85,0.00,,,0.00,WUHU216HW,2013-01-17 06:45:00,
2013-01-16 22:50:00,28.4,24.5,30.31,NW,315,0.0,0.0,85,0.00,,,0.00,WUHU216HW,2013-01-17 06:50:00,
2013-01-16 22:55:00,28.3,24.6,30.31,NW,315,0.0,0.0,86,0.00,,,0.00,WUHU216HW,2013-01-17 06:55:00,
2013-01-16 23:00:00,28.3,24.6,30.31,NW,315,0.0,0.0,86,0.00,,,0.00,WUHU216HW,2013-01-17 07:00:00,
2013-01-16 23:05:00,28.3,24.6,30.31,NW,315,0.0,0.0,86,0.00,,,0.00,WUHU216HW,2013-01-17 07:05:00,
2013-01-16 23:10:00,28.1,24.1,30.31,NW,315,0.0,0.0,85,0.00,,,0.00,WUHU216HW,2013-01-17 07:10:00,
2013-01-16 23:15:00,28.1,24.1,30.31,NW,315,0.0,0.0,85,0.00,,,0.00,WUHU216HW,2013-01-17 07:15:00,
2013-01-16 23:20:00,28.1,24.1,30.31,NW,315,0.0,0.0,85,0.00,,,0.00,WUHU216HW,2013-01-17 07:20:00,
2013-01-16 23:25:00,28.1,24.1,30.31,NW,315,0.0,0.0,85,0.00,,,0.00,WUHU216HW,2013-01-17 07:25:00,
2013-01-16 23:30:00,28.1,24.1,30.31,NW,315,0.0,0.0,85,0.00,,,0.00,WUHU216HW,2013-01-17 07:30:00,
2013-01-16 23:35:00,27.9,23.9,30.31,NW,315,0.0,0.0,85,0.00,,,0.00,WUHU216HW,2013-01-17 07:35:00,
2013-01-16 23:40:00,27.7,23.8,30.31,NW,315,0.0,0.0,85,0.00,,,0.00,WUHU216HW,2013-01-17 07:40:00,
2013-01-16 23:45:00,27.7,23.8,30.31,NW,315,0.0,0.0,85,0.00,,,0.00,WUHU216HW,2013-01-17 07:45:00,
2013-01-16 23:50:00,27.7,23.8,30.31,NW,315,0.0,0.0,85,0.00,,,0.00,WUHU216HW,2013-01-17 07:50:00,
2013-01-16 23:55:00,27.7,23.8,30.31,NW,315,0.0,0.0,85,0.00,,,0.00,WUHU216HW,2013-01-17 07:55:00,